• In Germany
  • List of Countries
  • For 7 days
  • Water Temperature
  • Satellite Maps
  • Weather Map
  • Weather Widgets
  • user-avatar
    Login

    Hourly Weather San Miguel de Tucumán

    Today, 14 August, Tuesday

    Time Temperature Precipitation Wind Pressure Humidity
    00:00 +21°C° 0 mm 3 mps 722 mmHg 56%
    01:00 +20°C° 0 mm 3 mps 723 mmHg 57%
    02:00 +20°C° 0 mm 2 mps 724 mmHg 58%
    03:00 +19°C° 0 mm 2 mps 725 mmHg 60%
    04:00 +18°C° 0 mm 2 mps 725 mmHg 62%
    05:00 +17°C° 0 mm 2 mps 726 mmHg 63%
    06:00 +17°C° 0 mm 2 mps 726 mmHg 61%
    07:00 +17°C° 0 mm 2 mps 727 mmHg 59%
    08:00 +17°C° 0 mm 2 mps 727 mmHg 56%
    09:00 +18°C° 0 mm 2 mps 728 mmHg 49%
    10:00 +19°C° 0 mm 2 mps 728 mmHg 42%
    11:00 +20°C° 0 mm 3 mps 728 mmHg 36%
    12:00 +21°C° 0 mm 2 mps 728 mmHg 34%
    13:00 +23°C° 0 mm 2 mps 727 mmHg 33%
    14:00 +23°C° 0 mm 2 mps 727 mmHg 31%
    15:00 +23°C° 0 mm 2 mps 726 mmHg 32%
    16:00 +21°C° 0 mm 2 mps 726 mmHg 32%
    17:00 +21°C° 0 mm 2 mps 725 mmHg 33%
    18:00 +19°C° 0 mm 2 mps 725 mmHg 36%
    19:00 +19°C° 0 mm 1 mps 726 mmHg 39%
    20:00 +16°C° 0 mm 1 mps 726 mmHg 42%
    21:00 +16°C° 0 mm 1 mps 726 mmHg 43%
    22:00 +15°C° 0 mm 1 mps 726 mmHg 44%
    23:00 +15°C° 0 mm 1 mps 726 mmHg 45%

    Tomorrow, 15 August, Wednesday

    Time Temperature Precipitation Wind Pressure Humidity
    00:00 +15°C° 0 mm 1 mps 726 mmHg 46%
    01:00 +14°C° 0 mm 1 mps 726 mmHg 47%
    02:00 +14°C° 0 mm 1 mps 725 mmHg 48%
    03:00 +13°C° 0 mm 1 mps 725 mmHg 49%
    04:00 +13°C° 0 mm 1 mps 725 mmHg 50%
    05:00 +12°C° 0 mm 1 mps 725 mmHg 51%
    06:00 +13°C° 0 mm 1 mps 725 mmHg 50%
    07:00 +13°C° 0 mm 1 mps 726 mmHg 49%
    08:00 +14°C° 0 mm 1 mps 726 mmHg 48%
    09:00 +16°C° 0 mm 2 mps 726 mmHg 43%
    10:00 +18°C° 0 mm 2 mps 727 mmHg 37%
    11:00 +20°C° 0 mm 2 mps 727 mmHg 31%
    12:00 +21°C° 0 mm 3 mps 726 mmHg 30%
    13:00 +22°C° 0 mm 3 mps 725 mmHg 28%
    14:00 +25°C° 0 mm 3 mps 724 mmHg 27%
    15:00 +24°C° 0 mm 3 mps 724 mmHg 28%
    16:00 +24°C° 0 mm 3 mps 723 mmHg 29%
    17:00 +23°C° 0 mm 2 mps 723 mmHg 30%
    18:00 +20°C° 0 mm 2 mps 724 mmHg 34%
    19:00 +19°C° 0 mm 1 mps 724 mmHg 38%
    20:00 +16°C° 0 mm 1 mps 724 mmHg 42%
    21:00 +16°C° 0 mm 1 mps 725 mmHg 43%
    22:00 +15°C° 0 mm 1 mps 725 mmHg 45%
    23:00 +15°C° 0 mm 1 mps 725 mmHg 46%

    Day after tomorrow, 16 August, Thursday

    Time Temperature Precipitation Wind Pressure Humidity
    00:00 +15°C° 0 mm 1 mps 725 mmHg 47%
    01:00 +14°C° 0 mm 1 mps 725 mmHg 47%
    02:00 +14°C° 0 mm 1 mps 724 mmHg 48%
    03:00 +14°C° 0 mm 1 mps 724 mmHg 49%
    04:00 +13°C° 0 mm 1 mps 724 mmHg 49%
    05:00 +13°C° 0 mm 1 mps 723 mmHg 50%
    06:00 +14°C° 0 mm 1 mps 724 mmHg 48%
    07:00 +14°C° 0 mm 1 mps 724 mmHg 46%
    08:00 +15°C° 0 mm 1 mps 725 mmHg 45%
    09:00 +19°C° 0 mm 1 mps 725 mmHg 39%
    10:00 +20°C° 0 mm 2 mps 725 mmHg 33%
    11:00 +24°C° 0 mm 2 mps 726 mmHg 28%
    12:00 +25°C° 0 mm 2 mps 725 mmHg 26%
    13:00 +26°C° 0 mm 2 mps 724 mmHg 25%
    14:00 +28°C° 0 mm 2 mps 724 mmHg 23%
    15:00 +27°C° 0 mm 2 mps 723 mmHg 25%
    16:00 +27°C° 0 mm 2 mps 723 mmHg 26%
    17:00 +26°C° 0 mm 2 mps 723 mmHg 28%
    18:00 +24°C° 0 mm 2 mps 723 mmHg 32%
    19:00 +21°C° 0 mm 2 mps 723 mmHg 36%
    20:00 +19°C° 0 mm 2 mps 724 mmHg 40%
    21:00 +19°C° 0 mm 2 mps 724 mmHg 41%
    22:00 +19°C° 0 mm 2 mps 724 mmHg 43%
    23:00 +18°C° 0 mm 2 mps 724 mmHg 44%

    17 August, Friday

    Time Temperature Precipitation Wind Pressure Humidity
    00:00 +18°C° 0 mm 2 mps 723 mmHg 45%
    01:00 +18°C° 0 mm 2 mps 723 mmHg 45%
    02:00 +17°C° 0 mm 2 mps 722 mmHg 46%
    03:00 +17°C° 0 mm 2 mps 722 mmHg 47%
    04:00 +17°C° 0 mm 2 mps 721 mmHg 47%
    05:00 +16°C° 0 mm 1 mps 721 mmHg 47%
    06:00 +18°C° 0 mm 1 mps 721 mmHg 45%
    07:00 +19°C° 0 mm 1 mps 722 mmHg 44%
    08:00 +20°C° 0 mm 1 mps 722 mmHg 42%
    09:00 +21°C° 0 mm 2 mps 722 mmHg 36%
    10:00 +25°C° 0 mm 2 mps 722 mmHg 31%
    11:00 +28°C° 0 mm 3 mps 722 mmHg 26%
    12:00 +29°C° 0 mm 3 mps 722 mmHg 25%
    13:00 +30°C° 0 mm 3 mps 721 mmHg 23%
    14:00 +33°C° 0 mm 3 mps 720 mmHg 22%
    15:00 +31°C° 0 mm 3 mps 720 mmHg 24%
    16:00 +30°C° 0 mm 3 mps 719 mmHg 26%
    17:00 +30°C° 0 mm 3 mps 719 mmHg 27%
    18:00 +28°C° 0 mm 3 mps 719 mmHg 32%
    19:00 +26°C° 0 mm 3 mps 719 mmHg 37%
    20:00 +24°C° 0 mm 3 mps 720 mmHg 42%
    21:00 +24°C° 0 mm 2 mps 720 mmHg 43%
    22:00 +23°C° 0 mm 2 mps 720 mmHg 45%
    23:00 +23°C° 0 mm 2 mps 720 mmHg 47%

    18 August, Saturday

    Time Temperature Precipitation Wind Pressure Humidity
    00:00 +21°C° 0 mm 2 mps 719 mmHg 47%
    01:00 +21°C° 0 mm 2 mps 719 mmHg 47%
    02:00 +20°C° 0 mm 2 mps 718 mmHg 47%
    03:00 +21°C° 0 mm 1 mps 718 mmHg 47%
    04:00 +21°C° 0 mm 1 mps 718 mmHg 47%
    05:00 +20°C° 0 mm 1 mps 717 mmHg 47%
    06:00 +21°C° 0 mm 1 mps 718 mmHg 46%
    07:00 +22°C° 0 mm 1 mps 718 mmHg 45%
    08:00 +22°C° 0 mm 1 mps 719 mmHg 44%
    09:00 +25°C° 0 mm 1 mps 719 mmHg 41%
    10:00 +27°C° 0 mm 1 mps 719 mmHg 37%
    11:00 +30°C° 0 mm 2 mps 719 mmHg 33%
    12:00 +30°C° 0 mm 2 mps 719 mmHg 32%
    13:00 +31°C° 0 mm 2 mps 718 mmHg 30%
    14:00 +32°C° 0 mm 2 mps 718 mmHg 29%
    15:00 +31°C° 0 mm 2 mps 718 mmHg 31%
    16:00 +31°C° 0 mm 2 mps 718 mmHg 33%
    17:00 +30°C° 0 mm 2 mps 718 mmHg 34%
    18:00 +28°C° 0 mm 2 mps 718 mmHg 39%
    19:00 +26°C° 0 mm 2 mps 719 mmHg 43%
    20:00 +24°C° 0 mm 2 mps 720 mmHg 48%
    21:00 +24°C° 0.1 mm 2 mps 720 mmHg 48%
    22:00 +24°C° 0.1 mm 2 mps 721 mmHg 49%
    23:00 +23°C° 0.1 mm 2 mps 721 mmHg 49%

    19 August, Sunday

    Time Temperature Precipitation Wind Pressure Humidity
    00:00 +23°C° 0.1 mm 2 mps 721 mmHg 53%
    01:00 +21°C° 0.1 mm 3 mps 721 mmHg 57%
    02:00 +21°C° 0.1 mm 3 mps 722 mmHg 61%
    03:00 +20°C° 0.2 mm 3 mps 722 mmHg 68%
    04:00 +19°C° 0.2 mm 3 mps 722 mmHg 74%
    05:00 +18°C° 0.2 mm 3 mps 723 mmHg 80%
    06:00 +18°C° 0.2 mm 3 mps 724 mmHg 79%
    07:00 +17°C° 0.2 mm 3 mps 725 mmHg 77%
    08:00 +17°C° 0.2 mm 4 mps 726 mmHg 75%
    09:00 +15°C° 0.1 mm 4 mps 727 mmHg 72%
    10:00 +15°C° 0.1 mm 4 mps 728 mmHg 69%
    11:00 +15°C° 0.1 mm 4 mps 729 mmHg 65%
    12:00 +15°C° 0 mm 4 mps 729 mmHg 62%
    13:00 +15°C° 0 mm 4 mps 728 mmHg 58%
    14:00 +15°C° 0 mm 4 mps 728 mmHg 55%
    15:00 +16°C° 0 mm 3 mps 729 mmHg 53%
    16:00 +16°C° 0 mm 3 mps 729 mmHg 51%
    17:00 +16°C° 0 mm 2 mps 729 mmHg 49%
    18:00 +15°C° 0 mm 2 mps 730 mmHg 52%
    19:00 +14°C° 0 mm 2 mps 731 mmHg 54%
    20:00 +12°C° 0 mm 1 mps 732 mmHg 57%
    21:00 +12°C° 0 mm 1 mps 732 mmHg 58%
    22:00 +12°C° 0 mm 1 mps 732 mmHg 59%
    23:00 +11°C° 0 mm 1 mps 732 mmHg 61%
    Show more